SCP
0 -0 -0 -0 -0 -0 -0 -0 -0 -0 -0 0 0 0 -0 -0 -0 0 0 -0 0 0 0 -0 0 0 0 0 -0 -0 0 0 0
0 -0 0 -0 -0 -0 0 -0 0 0 0 0 0 0 0 0 -0 -0 0 0 0 0 0 0 0 0 -0 0 0 -0 0 0 0
0 0 0 1 0 0 0 -0 1 1 0 0 0 0 0 0 0 -0 0 0 0 0 0 0 0 0 -0 -0 0 -0 -0 0 0
0 0 0 0 0 0 1 0 0 0 0 1 0 0 0 0 0 0 -0 0 0 0 1 0 0 0 -0 -0 0 -0 -0 0 0
0 0 0 0 0 0 0 0 0 0 0 1 1 0 0 0 1 0 0 0 0 0 0 0 0 0 0 0 0 -0 -0 -0 0
0 0 0 0 0 0 0 0 0 0 0 0 0 1 0 0 0 1 0 0 0 0 0 0 0 0 0 0 -0 0 -0 0 -0
0 0 0 0 0 0 0 0 0 0 0 0 0 0 1 1 1 0 1 1 1 0 1 1 0 0 0 0 0 0 0 0 0
0 0 0 0 0 0 0 0 0 0 0 0 0 0 0 1 0 1 2 2 1 1 1 1 1 1 0 0 1 0 0 0 0
0 0 0 0 0 0 0 0 0 0 0 0 0 0 0 0 0 0 1 1 2 1 1 1 1 1 1 0 0 0 0 1 1
0 0 0 0 0 0 0 0 0 0 0 0 0 0 0 0 0 0 0 0 1 2 1 1 1 1 1 1 1 0 -0 0 1
0 0 0 0 0 0 0 0 0 0 0 0 0 0 0 0 0 0 0 0 0 0 1 2 2 1 1 1 1 1 0 0 0
0 0 0 0 0 0 0 0 0 0 0 0 0 0 0 0 0 0 0 0 0 0 0 0 1 1 1 1 1 1 1 0 1
0 0 0 0 0 0 0 0 0 0 0 0 0 0 0 0 0 0 0 0 0 0 0 0 1 1 2 1 1 1 1 0 2
0 0 0 0 0 0 0 0 0 0 0 0 0 0 0 0 0 0 0 0 0 0 0 0 0 0 1 1 1 1 1 0 1
0 0 0 0 0 0 0 0 0 0 0 0 0 0 0 0 0 0 0 0 0 0 0 0 0 0 0 1 1 1 1 0 0
0 0 0 0 0 0 0 0 0 0 0 0 0 0 0 0 0 0 0 0 0 0 0 0 0 0 0 0 0 0 0 0 0
0 0 0 0 0 0 0 0 0 0 0 0 0 0 0 0 0 0 0 0 0 0 0 0 0 0 0 0 0 0 0 0 0
0 0 0 0 0 0 0 0 0 0 0 0 0 0 0 0 0 0 0 0 0 0 0 0 0 0 0 0 0 0 0 0 0
0 0 0 0 0 0 0 0 0 0 0 0 0 0 0 0 0 0 0 0 0 0 0 0 0 0 0 0 0 0 0 0 0
0 0 0 0 0 0 0 0 0 0 0 0 0 0 0 0 0 0 0 0 0 0 0 0 0 0 0 0 -0 0 0 0 0
Wind_Speed_500mb
16 50 56 65 72 73 70 61 71 60 49 44 43 41 38 37 33 26 21 21 20 25 5 32 27 14 10 16 14 21 20 14 21
22 67 89 68 71 76 70 67 70 70 51 47 47 47 43 38 31 23 20 20 24 22 14 3 14 10 11 13 14 11 15 19 14
32 44 32 29 20 49 68 68 63 58 61 48 44 43 45 43 39 31 35 26 23 19 11 24 28 25 19 15 15 17 19 16 13
23 37 48 36 22 19 42 37 67 40 20 50 47 44 46 41 38 36 41 44 39 37 29 14 16 19 30 22 15 19 17 20 19
33 41 49 42 35 34 33 24 28 52 52 34 47 44 48 47 41 36 34 38 40 30 34 42 33 18 19 27 24 27 24 17 19
39 45 45 45 40 39 37 24 17 11 9 22 11 48 53 46 43 44 41 37 29 33 30 27 30 37 34 39 37 35 32 26 22
45 47 47 47 49 45 38 24 20 26 42 46 32 14 24 48 47 42 41 41 35 29 32 33 31 35 37 38 33 34 36 34 30
47 47 47 47 43 39 38 45 37 22 16 15 38 31 10 16 36 37 36 30 36 39 38 35 34 36 38 44 41 34 32 30 32
38 40 39 39 38 37 40 42 44 45 35 19 8 8 6 14 33 3 30 40 37 31 36 50 42 43 43 45 49 42 40 44 45
34 34 34 32 32 32 33 34 36 41 43 35 23 13 12 2 18 26 24 27 29 26 31 34 43 56 45 50 52 51 48 49 53
24 26 26 26 25 24 26 28 30 32 32 39 34 29 25 22 11 18 20 31 35 34 34 32 37 41 49 61 58 59 57 56 60
18 18 19 19 18 18 17 22 22 27 23 25 25 30 30 26 20 17 15 24 28 36 48 47 41 50 53 54 57 64 61 57 60
14 11 12 13 13 12 12 15 16 18 17 17 19 20 23 23 26 26 22 20 20 31 40 46 39 43 47 54 60 60 60 59 65
8 5 6 11 11 11 11 13 14 14 14 15 17 20 20 22 24 25 25 26 25 23 26 37 48 49 45 43 50 56 55 56 58
5 2 3 7 10 11 14 15 15 16 16 20 24 26 26 26 27 28 28 34 28 27 27 31 31 38 47 47 45 42 47 58 59
9 8 6 6 7 11 11 14 15 16 18 20 26 34 35 34 33 32 31 34 39 36 21 34 37 39 33 31 41 40 40 45 49
9 7 6 5 7 10 14 17 18 16 24 27 29 28 34 39 37 35 33 32 26 30 35 27 26 32 38 34 39 42 39 25 37
7 5 6 7 7 8 11 17 19 21 24 26 28 27 27 30 34 35 36 35 36 37 35 40 50 49 54 58 55 47 43 51 51
7 3 6 9 11 11 13 17 17 19 21 28 33 34 31 29 35 34 33 38 42 45 44 43 44 50 53 58 56 53 51 53 52
2 1 6 10 14 15 17 17 20 20 25 27 27 31 35 38 40 36 38 35 43 50 50 48 49 49 48 55 63 57 52 52 58
Wind_Direction_500mb
183 269 219 202 196 193 197 189 182 188 204 205 200 203 202 206 209 207 200 192 203 205 223 209 212 220 216 203 210 196 210 202 208
158 221 229 202 202 193 196 194 189 187 199 210 210 211 212 215 216 200 185 210 199 208 229 236 165 191 233 203 233 221 224 195 192
20 33 62 191 193 212 196 200 183 185 200 210 219 211 214 216 219 208 200 200 213 196 230 217 230 231 206 222 214 243 242 202 218
47 53 50 87 177 121 162 193 181 213 226 204 221 210 216 211 220 217 202 206 216 206 199 212 208 232 219 208 215 241 248 217 235
67 62 67 65 79 113 159 156 185 224 263 175 206 213 209 211 217 210 224 213 215 216 212 222 225 238 233 216 227 243 257 235 225
71 72 59 65 79 96 104 93 131 208 182 190 222 202 206 207 212 210 211 233 228 219 223 216 220 223 231 237 231 224 246 253 241
85 79 78 65 59 60 67 79 105 139 195 217 232 189 220 187 200 210 211 217 231 232 230 236 226 217 226 241 240 243 232 246 259
89 85 79 76 74 64 60 64 65 68 96 142 193 234 187 169 190 191 198 213 225 225 227 235 249 242 229 228 243 242 246 250 254
93 86 79 75 72 67 56 42 46 51 52 52 220 276 58 186 228 313 185 214 224 231 237 229 227 245 250 241 234 236 238 252 258
97 90 82 75 66 61 55 51 42 32 36 39 40 38 18 87 191 215 200 212 217 229 238 249 243 236 242 251 253 247 235 240 249
96 93 85 75 67 60 54 43 40 58 28 22 28 39 35 33 335 272 256 239 239 237 240 244 253 254 252 250 251 255 253 241 243
101 93 87 77 66 58 53 47 34 55 43 28 21 23 19 18 22 12 331 285 272 260 254 250 247 250 253 256 257 253 251 255 251
112 89 74 65 58 60 50 36 20 34 27 26 16 7 9 5 358 2 4 354 320 284 269 269 267 259 258 258 258 258 258 252 252
118 82 45 39 36 39 30 14 8 12 4 357 339 333 340 341 340 350 346 329 339 338 315 286 271 264 267 269 263 261 258 256 257
138 108 9 0 360 359 358 357 354 348 339 313 308 313 315 314 318 322 324 323 326 324 335 329 310 283 272 274 281 276 272 267 261
119 101 76 19 1 349 350 332 303 325 303 308 321 313 305 301 303 309 314 313 320 323 329 317 316 316 295 273 264 274 277 265 260
111 69 59 34 7 353 342 343 335 329 328 319 303 308 315 316 307 304 303 311 311 296 304 295 285 299 298 302 288 282 266 276 266
119 80 44 23 8 346 339 330 326 331 316 309 317 304 306 309 314 308 302 298 290 281 276 286 296 299 299 298 296 296 294 284 283
138 64 12 3 358 354 344 343 332 319 335 322 323 325 314 304 296 292 291 289 293 288 287 281 285 293 300 303 296 292 291 290 289
187 233 330 347 347 352 341 329 345 335 338 331 320 325 317 310 298 300 294 286 293 300 288 289 286 282 292 296 304 297 294 292 287
Wind_Speed_850mb
16 50 56 65 72 73 70 61 71 60 49 44 43 41 38 37 33 26 21 21 20 25 5 32 27 14 10 16 14 21 20 14 21
22 67 89 68 71 76 70 67 70 70 51 47 47 47 43 38 31 23 20 20 24 22 14 3 14 10 11 13 14 11 15 19 14
32 44 32 29 20 49 68 68 63 58 61 48 44 43 45 43 39 31 35 26 23 19 11 24 28 25 19 15 15 17 19 16 13
23 37 48 36 22 19 42 37 67 40 20 50 47 44 46 41 38 36 41 44 39 37 29 14 16 19 30 22 15 19 17 20 19
33 41 49 42 35 34 33 24 28 52 52 34 47 44 48 47 41 36 34 38 40 30 34 42 33 18 19 27 24 27 24 17 19
39 45 45 45 40 39 37 24 17 11 9 22 11 48 53 46 43 44 41 37 29 33 30 27 30 37 34 39 37 35 32 26 22
45 47 47 47 49 45 38 24 20 26 42 46 32 14 24 48 47 42 41 41 35 29 32 33 31 35 37 38 33 34 36 34 30
47 47 47 47 43 39 38 45 37 22 16 15 38 31 10 16 36 37 36 30 36 39 38 35 34 36 38 44 41 34 32 30 32
38 40 39 39 38 37 40 42 44 45 35 19 8 8 6 14 33 3 30 40 37 31 36 50 42 43 43 45 49 42 40 44 45
34 34 34 32 32 32 33 34 36 41 43 35 23 13 12 2 18 26 24 27 29 26 31 34 43 56 45 50 52 51 48 49 53
24 26 26 26 25 24 26 28 30 32 32 39 34 29 25 22 11 18 20 31 35 34 34 32 37 41 49 61 58 59 57 56 60
18 18 19 19 18 18 17 22 22 27 23 25 25 30 30 26 20 17 15 24 28 36 48 47 41 50 53 54 57 64 61 57 60
14 11 12 13 13 12 12 15 16 18 17 17 19 20 23 23 26 26 22 20 20 31 40 46 39 43 47 54 60 60 60 59 65
8 5 6 11 11 11 11 13 14 14 14 15 17 20 20 22 24 25 25 26 25 23 26 37 48 49 45 43 50 56 55 56 58
5 2 3 7 10 11 14 15 15 16 16 20 24 26 26 26 27 28 28 34 28 27 27 31 31 38 47 47 45 42 47 58 59
9 8 6 6 7 11 11 14 15 16 18 20 26 34 35 34 33 32 31 34 39 36 21 34 37 39 33 31 41 40 40 45 49
9 7 6 5 7 10 14 17 18 16 24 27 29 28 34 39 37 35 33 32 26 30 35 27 26 32 38 34 39 42 39 25 37
7 5 6 7 7 8 11 17 19 21 24 26 28 27 27 30 34 35 36 35 36 37 35 40 50 49 54 58 55 47 43 51 51
7 3 6 9 11 11 13 17 17 19 21 28 33 34 31 29 35 34 33 38 42 45 44 43 44 50 53 58 56 53 51 53 52
2 1 6 10 14 15 17 17 20 20 25 27 27 31 35 38 40 36 38 35 43 50 50 48 49 49 48 55 63 57 52 52 58
Wind_Direction_850mb
183 269 219 202 196 193 197 189 182 188 204 205 200 203 202 206 209 207 200 192 203 205 223 209 212 220 216 203 210 196 210 202 208
158 221 229 202 202 193 196 194 189 187 199 210 210 211 212 215 216 200 185 210 199 208 229 236 165 191 233 203 233 221 224 195 192
20 33 62 191 193 212 196 200 183 185 200 210 219 211 214 216 219 208 200 200 213 196 230 217 230 231 206 222 214 243 242 202 218
47 53 50 87 177 121 162 193 181 213 226 204 221 210 216 211 220 217 202 206 216 206 199 212 208 232 219 208 215 241 248 217 235
67 62 67 65 79 113 159 156 185 224 263 175 206 213 209 211 217 210 224 213 215 216 212 222 225 238 233 216 227 243 257 235 225
71 72 59 65 79 96 104 93 131 208 182 190 222 202 206 207 212 210 211 233 228 219 223 216 220 223 231 237 231 224 246 253 241
85 79 78 65 59 60 67 79 105 139 195 217 232 189 220 187 200 210 211 217 231 232 230 236 226 217 226 241 240 243 232 246 259
89 85 79 76 74 64 60 64 65 68 96 142 193 234 187 169 190 191 198 213 225 225 227 235 249 242 229 228 243 242 246 250 254
93 86 79 75 72 67 56 42 46 51 52 52 220 276 58 186 228 313 185 214 224 231 237 229 227 245 250 241 234 236 238 252 258
97 90 82 75 66 61 55 51 42 32 36 39 40 38 18 87 191 215 200 212 217 229 238 249 243 236 242 251 253 247 235 240 249
96 93 85 75 67 60 54 43 40 58 28 22 28 39 35 33 335 272 256 239 239 237 240 244 253 254 252 250 251 255 253 241 243
101 93 87 77 66 58 53 47 34 55 43 28 21 23 19 18 22 12 331 285 272 260 254 250 247 250 253 256 257 253 251 255 251
112 89 74 65 58 60 50 36 20 34 27 26 16 7 9 5 358 2 4 354 320 284 269 269 267 259 258 258 258 258 258 252 252
118 82 45 39 36 39 30 14 8 12 4 357 339 333 340 341 340 350 346 329 339 338 315 286 271 264 267 269 263 261 258 256 257
138 108 9 0 360 359 358 357 354 348 339 313 308 313 315 314 318 322 324 323 326 324 335 329 310 283 272 274 281 276 272 267 261
119 101 76 19 1 349 350 332 303 325 303 308 321 313 305 301 303 309 314 313 320 323 329 317 316 316 295 273 264 274 277 265 260
111 69 59 34 7 353 342 343 335 329 328 319 303 308 315 316 307 304 303 311 311 296 304 295 285 299 298 302 288 282 266 276 266
119 80 44 23 8 346 339 330 326 331 316 309 317 304 306 309 314 308 302 298 290 281 276 286 296 299 299 298 296 296 294 284 283
138 64 12 3 358 354 344 343 332 319 335 322 323 325 314 304 296 292 291 289 293 288 287 281 285 293 300 303 296 292 291 290 289
187 233 330 347 347 352 341 329 345 335 338 331 320 325 317 310 298 300 294 286 293 300 288 289 286 282 292 296 304 297 294 292 287